Springfield, OH

9:18 PM EST on December 10, 2016 (GMT -0500)
Springfield-Beckley Municipal

Weather History for KSGH - December, 2013

Change the Weather History Date:

Friday, December 13, 2013

  Actual Average (KFFO) Record (KFFO)
Temperature  
Mean Temperature 26 °F -  
Max Temperature 34 °F 39 °F 62 °F (2015)
Min Temperature 17 °F 25 °F 10 °F (2005)
Degree Days  
Heating Degree Days 40    
Moisture  
Dew Point 19 °F    
Average Humidity 75    
Maximum Humidity 100    
Minimum Humidity 54    
Precipitation  
Precipitation 0.03 in - - ()
Sea Level Pressure  
Sea Level Pressure 30.25 in    
Wind  
Wind Speed 8 mph (SSW)    
Max Wind Speed 16 mph    
Max Gust Speed -    
Visibility 5 miles    
Events Snow    
Averages and records for this station are not official NWS values.
T = Trace of Precipitation, MM = Missing Value Source: NWS Daily Summary

Daily Weather History Graph

Daily Weather History Graph

Search for Another Location

Airport or City:

Trip Planner

Search our weather history database for the weather conditions in past years. The results will help you decide how hot, cold, wet, or windy it might be!

Date:

Astronomy

Dec. 13, 2013 Rise Set
Actual Time 7:48 AM EST 5:11 PM EST
Civil Twilight 7:17 AM EST 5:41 PM EST
Nautical Twilight 6:43 AM EST 6:15 PM EST
Astronomical Twilight 6:11 AM EST 6:48 PM EST
Moon 2:53 PM EST (12/13) 4:10 AM EST (12/13)
Length of Visible Light 10h 23m
Length of Day
9h 22m
Waxing Gibbous, 88% of the Moon is Illuminated
Dec 13
Waxing Gibbous
Dec 17
Full
Dec 25
Last Quarter
Jan 1
New
Jan 7
First Quarter

Hourly Weather History & Observations

Time (EST) Temp. Windchill Dew Point Humidity Pressure Visibility Wind Dir Wind Speed Gust Speed Precip Events Conditions
12:56 AM 18.1 °F 5.6 °F 5.0 °F 57% 30.34 in 7.0 mi SW 11.5 mph - N/A   Clear
1:56 AM 19.0 °F 6.1 °F 6.1 °F 57% 30.32 in 8.0 mi SW 12.7 mph - N/A   Mostly Cloudy
2:56 AM 20.1 °F 10.3 °F 8.1 °F 60% 30.33 in 8.0 mi SW 8.1 mph - N/A   Overcast
3:56 AM 20.1 °F 11.3 °F 9.1 °F 62% 30.31 in 8.0 mi SW 6.9 mph - N/A   Overcast
4:56 AM 21.0 °F 12.4 °F 10.0 °F 63% 30.29 in 8.0 mi SW 6.9 mph - N/A   Overcast
5:56 AM 19.0 °F 10.0 °F 9.1 °F 65% 30.29 in 8.0 mi SW 6.9 mph - N/A   Partly Cloudy
6:56 AM 17.1 °F 6.6 °F 9.1 °F 71% 30.30 in 8.0 mi SW 8.1 mph - N/A   Clear
7:56 AM 17.1 °F 6.6 °F 10.0 °F 74% 30.30 in 6.0 mi SW 8.1 mph - N/A   Haze
8:56 AM 19.0 °F 10.0 °F 11.1 °F 71% 30.30 in 6.0 mi SSW 6.9 mph - N/A   Haze
9:56 AM 23.0 °F 14.7 °F 13.1 °F 66% 30.31 in 6.0 mi SW 6.9 mph - N/A   Haze
10:56 AM 26.1 °F 18.4 °F 15.1 °F 63% 30.31 in 6.0 mi WSW 6.9 mph - N/A   Haze
11:56 AM 29.1 °F 24.1 °F 16.2 °F 58% 30.28 in 6.0 mi SW 4.6 mph - N/A   Haze
12:56 PM 31.1 °F 24.5 °F 18.1 °F 59% 30.25 in 6.0 mi SW 6.9 mph - N/A   Haze
1:56 PM 32.9 °F - 18.1 °F 55% 30.23 in 6.0 mi Calm Calm - N/A   Haze
2:56 PM 34.0 °F 28.8 °F 19.0 °F 54% 30.23 in 6.0 mi SSE 5.8 mph - N/A   Haze
3:56 PM 32.0 °F 27.5 °F 19.0 °F 59% 30.22 in 6.0 mi South 4.6 mph - N/A   Haze
4:56 PM 28.0 °F 21.7 °F 20.1 °F 72% 30.22 in 6.0 mi ESE 5.8 mph - N/A   Haze
5:56 PM 28.0 °F 21.7 °F 21.0 °F 75% 30.22 in 7.0 mi SE 5.8 mph - N/A   Clear
6:56 PM 29.1 °F 22.1 °F 21.0 °F 72% 30.23 in 8.0 mi SSE 6.9 mph - N/A   Clear
7:56 PM 31.1 °F 25.4 °F 21.0 °F 66% 30.25 in 8.0 mi South 5.8 mph - N/A   Clear
8:56 PM 32.9 °F 27.5 °F 21.0 °F 62% 30.24 in 8.0 mi South 5.8 mph - N/A   Clear
9:56 PM 32.0 °F 24.2 °F 23.0 °F 69% 30.25 in 7.0 mi SW 9.2 mph - 0.00 in   Mostly Cloudy
10:04 PM 33.8 °F 23.5 °F 24.8 °F 70% 30.21 in 2.5 mi WSW 16.1 mph - 0.00 in Snow Light Snow
10:09 PM 32.0 °F 23.0 °F 28.4 °F 87% 30.20 in 1.2 mi SW 11.5 mph - 0.00 in Snow Light Snow
10:14 PM 30.2 °F 23.4 °F 28.4 °F 93% 30.20 in 0.8 mi SSW 6.9 mph - 0.00 in Snow Light Snow
10:35 PM 28.4 °F 23.3 °F 28.4 °F 100% 30.17 in 1.0 mi ENE 4.6 mph - 0.00 in Snow Light Snow
10:43 PM 28.4 °F 23.3 °F 28.4 °F 100% 30.17 in 1.5 mi NNE 4.6 mph - 0.01 in Snow Light Snow
10:56 PM 29.1 °F 25.4 °F 29.1 °F 100% 30.22 in 3.0 mi SSE 3.5 mph - 0.01 in Snow Light Snow
11:00 PM 28.4 °F - 28.4 °F 100% 30.17 in 2.5 mi Calm Calm - 0.00 in Snow Light Snow
11:09 PM 28.4 °F 24.6 °F 28.4 °F 100% 30.17 in 1.2 mi East 3.5 mph - 0.00 in Snow Light Snow
11:25 PM 28.4 °F 23.3 °F 28.4 °F 100% 30.18 in 1.0 mi East 4.6 mph - 0.00 in Snow Light Snow
11:40 PM 28.4 °F 21.2 °F 28.4 °F 100% 30.17 in 1.2 mi East 6.9 mph - 0.01 in Snow Light Snow
11:56 PM 29.1 °F 25.4 °F 29.1 °F 100% 30.22 in 2.5 mi East 3.5 mph - 0.02 in Snow Light Snow